Temperature
26 26 27 26 26 26 26 26 25 25 24 23 23 23 22 22 21 20 20 19 19 18 18 18 18 18 17 17 17 17 17 16 16 16 16 16 16 16 15 15 15 15 15 15
26 26 26 26 26 26 26 26 25 25 24 25 24 23 22 21 21 20 19 19 19 18 18 18 18 17 17 17 17 17 16 16 16 16 16 16 15 15 15 15 15 15 15 15
25 26 26 25 26 26 26 26 26 24 24 24 23 23 22 21 20 20 19 19 18 18 18 18 17 17 17 17 17 17 16 16 16 16 15 15 15 15 15 15 15 15 15 14
25 25 24 25 27 27 26 26 26 25 24 24 23 22 21 21 20 19 19 18 18 18 18 17 17 17 17 17 17 16 16 16 15 15 15 15 15 15 15 14 14 14 14 14
25 24 24 25 25 26 25 24 25 24 24 23 22 22 21 20 20 19 18 18 17 17 17 17 17 17 17 16 16 16 16 15 15 15 15 15 14 14 14 14 14 14 14 14
24 24 23 24 25 26 25 23 24 24 23 22 22 20 20 20 19 18 18 17 17 17 17 17 16 16 16 16 16 15 15 15 15 14 14 14 14 14 14 14 14 14 13 13
23 23 23 23 24 25 23 23 24 23 23 22 21 21 20 19 18 17 17 17 16 16 16 16 16 16 15 15 15 15 14 14 14 14 14 14 14 14 13 13 13 13 13 13
23 23 22 23 23 23 23 23 23 22 21 21 20 19 19 18 17 17 16 16 16 16 15 15 15 15 15 15 14 14 14 14 14 13 13 13 13 13 13 13 12 12 12 12
23 21 22 22 22 22 22 22 21 21 20 19 19 18 17 17 16 16 16 15 15 15 15 15 15 14 14 14 14 14 14 13 13 13 13 13 13 13 12 12 12 12 12 12
22 21 21 21 21 21 21 20 20 20 19 18 18 17 17 16 16 16 15 15 15 14 14 14 14 14 14 14 13 13 13 13 13 13 12 12 12 12 12 12 12 11 11 11
22 21 20 20 20 20 19 19 19 19 18 18 17 17 16 16 15 15 15 15 14 14 14 14 14 13 13 13 13 13 12 12 12 12 12 12 12 11 11 11 11 11 11 11
21 21 20 19 19 19 18 18 18 17 17 17 16 16 16 15 15 15 14 14 14 14 13 13 13 13 13 13 12 12 12 12 12 11 11 11 11 11 11 11 11 11 11 11
20 20 19 19 18 18 17 17 17 17 16 16 16 15 15 15 14 14 14 14 13 13 13 13 13 12 12 12 12 11 11 11 11 11 11 10 10 10 10 10 10 10 10 10
18 18 18 18 17 17 17 16 16 16 16 15 15 15 14 14 14 13 13 13 13 13 12 12 12 12 12 11 11 11 11 10 10 10 10 10 10 10 10 10 10 10 10 10
17 17 17 16 16 16 16 15 15 15 15 14 14 14 14 13 13 13 13 12 12 12 12 12 11 11 11 11 10 10 10 10 10 10 9 9 9 9 9 9 9 10 10 10
16 16 16 16 15 15 15 15 15 14 14 13 13 13 13 12 12 12 12 12 12 11 11 11 11 11 11 10 10 9 9 9 9 9 9 9 9 9 9 9 9 9 9 9
15 15 15 15 15 14 14 14 14 13 13 13 12 12 12 12 12 11 11 11 11 11 11 11 10 10 10 10 9 9 9 9 8 8 8 8 8 8 8 8 8 8 8 8
15 14 14 14 14 13 13 13 13 13 12 12 12 12 11 11 11 11 11 11 11 10 10 10 10 10 9 9 9 8 8 8 8 8 8 8 8 8 8 8 8 8 8 8
13 13 13 13 13 13 12 12 12 12 12 11 11 11 11 11 10 10 10 10 10 10 10 10 9 9 9 8 8 8 8 7 7 7 7 7 7 7 7 7 7 7 7 7
12 12 12 12 12 12 12 11 11 11 11 11 10 10 10 10 10 10 10 10 10 9 9 9 9 8 8 8 8 7 7 7 7 7 7 7 7 7 7 7 7 7 7 7
11 11 11 11 11 11 11 11 11 10 10 10 10 10 10 9 9 9 9 9 9 9 9 8 8 8 8 7 7 7 7 6 6 6 6 6 6 6 6 6 6 6 6 6
11 11 11 10 10 10 10 10 10 10 10 9 9 9 9 9 9 9 9 9 8 8 8 8 7 7 7 7 6 6 6 6 6 6 6 6 6 6 6 6 6 5 5 5
10 10 10 10 10 10 10 9 9 9 9 9 9 8 8 8 8 8 8 8 8 8 7 7 7 7 6 6 6 6 5 5 6 6 6 5 5 5 5 5 5 5 5 5
9 9 9 9 9 9 9 9 9 9 8 8 8 8 8 8 8 8 7 7 7 7 7 7 6 6 6 6 5 5 5 5 5 5 5 5 5 5 4 4 4 4 4 4
9 9 9 9 9 8 8 8 8 8 8 8 8 8 7 7 7 7 7 7 7 6 6 6 6 5 5 5 5 5 5 5 5 5 4 4 4 4 4 4 4 4 4 4
8 8 8 8 8 8 8 8 7 7 7 7 7 7 7 7 7 7 6 6 6 6 6 5 5 5 5 5 5 5 4 4 4 4 4 4 4 4 4 4 4 3 3 3
7 7 7 7 7 7 7 7 7 7 7 6 6 6 6 6 6 6 6 5 5 5 5 5 5 4 4 4 4 4 4 4 4 4 4 3 3 3 3 3 3 3 3 3
Wind_Speed
3 3 3 5 5 4 4 3 0 6 11 12 11 10 10 10 9 9 8 7 7 5 4 4 3 3 2 2 2 2 2 1 0 1 1 1 1 2 2 3 4 4 3 3
5 6 5 5 5 5 4 2 3 6 6 9 11 10 10 10 10 9 8 7 6 5 4 3 3 2 2 2 2 2 2 1 1 1 1 2 2 2 3 3 3 3 4 4
6 6 7 7 7 7 5 4 4 5 6 10 10 10 10 9 9 8 8 6 5 4 3 3 3 3 2 2 2 2 2 1 1 1 1 1 2 2 3 3 3 4 4 4
6 6 7 2 2 4 4 3 3 6 9 9 9 9 9 9 8 7 7 6 5 3 3 3 3 3 3 3 3 3 2 1 1 1 1 2 2 3 3 3 3 3 4 4
6 7 5 5 4 4 5 4 4 7 10 9 10 10 8 8 8 7 6 5 4 3 3 3 3 2 2 2 2 3 2 2 1 1 1 2 3 3 3 3 4 4 4 5
7 7 5 3 5 4 4 4 4 7 9 10 9 6 5 7 8 7 6 5 4 3 3 4 3 3 3 3 3 3 2 3 3 2 2 3 3 3 3 4 4 4 5 5
9 7 1 4 4 4 4 3 6 7 8 9 6 5 8 9 8 7 6 5 4 4 4 4 3 3 3 3 3 2 2 3 3 3 3 3 2 3 4 4 4 5 6 6
8 8 3 4 4 2 4 7 8 8 7 8 8 9 10 9 8 6 6 5 4 4 3 3 3 3 3 3 3 3 3 3 3 3 4 3 2 3 4 4 4 5 5 5
0 2 6 5 5 6 7 8 7 7 8 8 8 9 9 7 6 5 5 4 3 3 2 2 2 2 2 2 3 3 3 4 4 4 3 3 2 3 4 4 3 4 4 5
2 6 7 6 7 6 7 7 7 7 8 8 8 7 6 6 5 4 4 3 2 2 1 1 1 1 2 3 3 3 4 4 4 4 3 3 3 3 3 4 4 4 4 5
2 5 6 5 5 6 6 6 7 6 7 7 7 6 5 4 4 3 3 2 2 1 1 1 1 1 2 3 4 5 4 4 4 4 4 4 4 4 5 5 5 6 5 5
3 5 5 6 6 6 6 6 5 5 5 5 5 4 4 3 3 2 2 1 1 1 0 2 2 2 2 3 4 5 5 5 4 4 4 4 5 6 8 9 10 11 11 10
1 4 5 6 6 5 5 5 5 4 4 4 3 3 3 2 2 1 1 0 1 1 1 2 2 2 2 3 4 5 5 5 4 4 4 5 5 5 7 8 11 12 12 13
3 4 5 5 5 5 4 4 4 4 4 3 3 3 2 2 1 1 0 1 1 1 2 2 2 2 3 3 4 5 6 5 5 4 5 5 6 6 7 7 7 7 8 11
2 3 4 4 5 4 4 3 4 3 3 3 2 2 2 1 0 1 1 2 2 2 3 3 3 3 3 3 5 6 5 4 4 4 5 6 7 7 7 8 7 7 6 6
3 4 4 5 5 4 4 3 3 2 2 1 1 1 0 0 1 1 2 2 3 4 3 3 3 3 2 3 5 5 4 7 7 6 6 6 7 7 7 7 7 7 7 6
5 5 5 5 5 4 3 2 2 2 1 1 1 0 1 1 2 2 2 3 4 4 4 3 3 2 3 4 5 4 5 6 9 7 6 7 7 7 7 7 8 8 8 8
4 4 4 4 4 3 3 2 1 1 1 1 1 1 2 2 3 3 3 4 4 4 4 4 2 3 4 4 5 4 5 6 6 7 7 7 7 8 8 8 9 10 8 9
3 3 3 3 2 2 2 2 1 1 1 1 1 2 3 3 4 4 4 5 5 5 4 3 3 4 5 5 6 4 5 7 7 7 7 9 9 8 8 8 9 9 9 8
3 3 3 2 1 1 1 1 1 1 1 2 2 3 3 4 4 4 5 5 5 4 3 3 3 4 5 5 6 5 6 7 8 8 8 8 8 8 8 9 9 9 9 8
3 2 2 2 1 1 1 2 2 2 1 2 3 3 4 4 5 5 5 5 5 4 3 3 3 4 4 5 7 6 7 8 8 8 8 8 8 8 9 9 9 9 9 9
2 2 2 1 1 2 2 2 2 2 2 3 4 4 5 5 6 6 6 5 4 3 3 3 4 5 6 8 6 7 8 8 8 8 7 8 8 8 8 9 9 8 8 8
1 1 2 2 2 3 2 2 2 3 3 4 4 5 5 5 4 5 6 4 3 3 3 4 6 9 11 8 6 7 8 9 8 8 7 7 8 8 8 9 8 8 8 8
2 2 2 3 3 3 4 3 3 3 3 4 4 5 6 5 5 4 4 5 5 5 5 6 9 11 11 7 7 8 8 8 7 7 7 8 8 8 8 8 8 7 8 9
3 3 4 3 4 3 4 4 4 4 4 4 5 5 5 4 4 4 5 5 6 6 6 7 11 12 8 7 7 7 7 8 8 8 8 8 7 7 7 7 7 8 7 7
4 4 3 4 4 3 3 3 3 3 4 4 4 4 4 4 4 4 4 5 6 7 6 5 6 8 7 7 7 7 7 9 9 8 7 7 8 8 7 8 9 8 7 7
5 5 4 4 3 3 3 3 3 4 4 4 4 4 4 5 5 5 6 6 6 6 5 5 5 6 6 7 7 7 7 7 7 7 7 7 6 7 7 9 7 6 6 6
Wind_Direction
205 258 205 191 202 217 255 294 11 127 136 152 148 140 135 131 128 123 118 114 111 114 114 113 110 107 103 108 117 120 121 131 130 313 320 321 321 311 299 295 300 302 301 300
221 211 220 211 216 214 214 232 140 130 118 134 137 138 140 140 135 127 121 116 114 114 114 122 120 114 100 96 96 97 93 84 68 347 350 343 331 320 305 294 295 304 301 296
250 210 207 222 217 209 197 203 190 157 133 132 133 138 138 135 130 127 124 119 114 115 109 113 105 101 95 78 75 90 85 52 46 340 342 329 321 313 302 293 284 284 282 282
252 225 229 185 133 162 168 173 138 122 125 131 134 128 124 125 128 124 119 115 108 102 96 92 91 91 93 88 76 68 57 24 12 1 344 329 306 295 291 295 289 271 270 273
257 244 221 160 151 160 165 150 129 131 131 128 122 116 113 117 116 114 112 109 102 90 81 73 65 69 77 83 79 66 34 352 342 332 312 300 295 287 281 288 289 285 277 270
263 256 247 140 141 161 169 160 143 146 145 146 145 144 139 122 111 107 100 98 93 85 70 61 51 48 44 49 56 45 13 344 334 327 306 286 283 287 285 278 272 277 281 271
253 256 251 98 123 160 188 155 135 139 140 146 146 114 118 117 107 104 103 97 90 82 69 51 37 40 37 31 27 8 347 328 314 309 294 282 285 287 286 280 280 278 278 272
231 238 214 129 147 156 103 103 116 116 121 121 109 105 112 113 110 110 107 102 98 90 77 55 32 25 29 23 1 348 333 313 299 295 298 308 295 286 286 282 281 280 282 284
57 100 91 101 95 78 94 105 104 111 114 115 114 115 116 118 120 120 119 112 98 93 91 73 39 19 4 348 337 325 316 306 296 294 295 299 298 294 294 285 280 284 287 289
112 126 122 111 98 88 89 94 93 103 112 116 117 119 120 124 128 132 127 118 115 110 95 55 18 351 334 332 322 309 301 299 300 303 309 311 298 276 279 280 274 275 281 283
170 131 123 124 118 110 100 97 98 100 109 118 121 124 125 133 133 129 129 131 129 116 105 307 309 320 336 335 330 316 309 311 313 316 312 300 288 277 274 264 259 258 262 266
202 167 161 147 134 127 125 123 117 114 111 112 120 126 128 127 118 122 131 131 133 120 266 291 309 331 349 347 334 324 322 322 316 310 307 302 296 293 275 271 274 267 261 263
18 94 108 118 123 125 128 127 125 126 123 119 116 120 121 114 117 122 142 210 196 231 282 304 317 324 343 343 331 318 313 314 315 315 312 306 301 298 299 293 280 271 269 269
71 102 121 130 131 128 132 134 134 129 117 109 100 94 100 95 96 96 309 314 310 296 292 297 307 318 332 328 317 309 309 309 307 299 300 299 297 294 290 290 294 287 271 268
138 136 137 128 132 139 140 147 143 132 118 105 89 81 81 77 36 338 335 326 310 294 292 297 300 303 315 320 316 309 307 303 302 300 293 289 287 287 287 288 290 293 293 285
156 154 162 160 159 160 162 163 158 148 134 123 110 89 52 325 290 286 288 293 296 293 290 292 291 296 313 321 311 303 297 298 301 293 288 287 287 288 289 290 291 292 290 287
187 184 180 177 173 170 170 172 178 165 165 174 165 208 297 291 284 281 284 287 288 289 290 288 295 317 327 312 303 298 296 295 295 294 287 287 290 291 290 290 289 289 288 287
191 184 182 177 177 179 183 186 190 195 209 225 249 265 276 281 285 288 292 294 292 291 293 299 320 323 307 299 300 299 299 297 292 290 290 291 294 295 294 292 292 291 291 289
165 169 165 169 176 179 189 201 216 225 243 268 273 276 279 283 288 293 295 290 286 284 284 293 308 304 297 293 296 286 291 294 295 292 289 290 291 289 290 289 288 288 289 290
142 150 154 162 181 187 204 218 236 238 245 258 268 273 276 280 283 285 284 280 272 268 282 310 302 293 291 296 306 297 293 291 290 290 289 288 287 288 290 291 291 291 291 289
152 149 155 171 183 223 248 247 239 243 260 268 270 274 279 284 284 282 280 279 278 284 288 284 280 283 290 311 306 295 290 287 285 285 287 288 289 290 290 291 292 293 293 293
158 160 177 193 215 237 244 261 267 270 272 271 271 273 276 277 279 280 277 272 277 288 288 281 281 291 305 309 292 285 281 281 282 281 282 286 289 290 290 292 292 293 295 296
219 213 214 224 237 251 256 265 272 272 268 272 279 281 279 277 275 274 276 278 288 286 285 280 283 289 293 291 282 280 280 280 280 281 284 288 290 290 289 291 292 294 295 295
277 274 273 273 270 265 267 273 281 282 276 274 270 271 273 273 273 271 276 282 284 279 276 276 282 284 285 279 277 278 280 282 284 288 290 289 289 288 288 289 290 288 286 288
275 276 275 278 277 277 281 288 290 286 284 279 278 279 278 269 268 274 280 284 287 285 280 281 286 288 284 280 280 283 287 287 290 292 286 288 289 288 289 290 291 290 287 286
273 274 275 271 271 277 283 284 281 282 281 281 280 282 287 287 284 281 278 279 280 283 281 276 275 278 279 282 285 289 291 294 294 290 287 290 291 291 290 290 291 290 287 286
273 268 262 262 262 261 268 275 279 283 286 285 289 298 306 304 301 299 297 293 289 281 277 277 279 281 284 285 285 288 290 291 294 295 296 295 293 292 292 292 291 289 288 287
Height
1453 1450 1449 1452 1454 1456 1459 1460 1466 1469 1472 1475 1476 1480 1485 1489 1492 1495 1497 1499 1501 1503 1504 1505 1506 1506 1507 1507 1508 1508 1508 1508 1508 1508 1508 1508 1508 1507 1507 1506 1506 1506 1505 1505
1453 1449 1450 1454 1454 1455 1458 1459 1462 1466 1471 1470 1475 1480 1484 1488 1491 1494 1497 1499 1501 1503 1503 1504 1505 1505 1506 1506 1506 1506 1506 1506 1506 1506 1506 1506 1505 1505 1504 1504 1503 1503 1503 1502
1456 1448 1452 1462 1453 1454 1456 1457 1460 1468 1470 1470 1475 1479 1483 1487 1490 1493 1496 1498 1500 1501 1503 1503 1504 1504 1505 1505 1505 1505 1505 1505 1505 1504 1504 1504 1503 1502 1502 1501 1501 1500 1500 1499
1455 1456 1471 1457 1445 1447 1453 1456 1457 1461 1466 1470 1475 1479 1484 1487 1490 1493 1495 1498 1499 1501 1502 1502 1503 1503 1504 1504 1504 1504 1503 1503 1503 1502 1502 1501 1500 1500 1499 1498 1498 1497 1496 1496
1455 1460 1460 1454 1448 1449 1455 1460 1459 1463 1467 1472 1476 1480 1485 1488 1490 1493 1495 1497 1498 1500 1500 1501 1502 1502 1503 1503 1503 1502 1502 1502 1501 1500 1499 1498 1498 1497 1496 1496 1495 1494 1493 1493
1456 1463 1465 1454 1447 1448 1454 1465 1461 1463 1467 1472 1475 1482 1486 1488 1490 1492 1494 1496 1497 1498 1499 1500 1500 1501 1501 1501 1501 1500 1500 1500 1499 1498 1497 1496 1495 1494 1493 1493 1492 1491 1490 1490
1459 1460 1457 1451 1449 1451 1466 1466 1460 1463 1467 1471 1475 1479 1483 1486 1489 1491 1493 1495 1496 1497 1498 1498 1499 1499 1499 1499 1499 1499 1498 1497 1497 1496 1494 1494 1492 1491 1490 1489 1489 1487 1486 1486
1454 1460 1463 1452 1452 1455 1459 1458 1461 1465 1468 1472 1476 1479 1482 1486 1488 1491 1492 1494 1495 1496 1497 1497 1498 1498 1498 1498 1497 1497 1496 1495 1494 1493 1492 1491 1490 1488 1487 1486 1485 1484 1483 1482
1449 1456 1453 1452 1454 1457 1458 1461 1464 1467 1470 1474 1477 1480 1483 1486 1488 1490 1492 1493 1494 1495 1495 1496 1496 1496 1496 1496 1495 1494 1494 1493 1492 1491 1490 1488 1487 1485 1484 1483 1482 1480 1479 1477
1449 1452 1454 1455 1457 1459 1461 1464 1466 1469 1472 1474 1477 1480 1483 1485 1487 1489 1491 1492 1493 1494 1494 1495 1495 1494 1494 1494 1493 1492 1491 1490 1489 1488 1486 1485 1483 1482 1481 1479 1478 1476 1475 1473
1448 1452 1455 1457 1459 1461 1463 1465 1468 1470 1472 1475 1477 1480 1482 1484 1486 1488 1489 1490 1491 1492 1492 1493 1493 1492 1492 1491 1490 1489 1488 1487 1486 1485 1483 1481 1480 1478 1477 1475 1474 1473 1471 1469
1449 1450 1453 1457 1459 1462 1464 1466 1469 1471 1473 1475 1477 1479 1481 1483 1485 1486 1487 1488 1489 1489 1490 1490 1490 1490 1489 1488 1487 1486 1485 1484 1483 1481 1479 1477 1475 1474 1472 1471 1470 1468 1466 1465
1448 1449 1452 1456 1459 1462 1464 1467 1469 1471 1472 1475 1477 1478 1480 1482 1483 1484 1485 1486 1487 1487 1487 1487 1487 1487 1486 1485 1484 1483 1482 1481 1479 1477 1475 1473 1471 1469 1467 1465 1464 1462 1461 1459
1449 1451 1454 1457 1459 1462 1464 1466 1468 1470 1472 1474 1475 1477 1478 1480 1481 1482 1483 1484 1484 1484 1484 1484 1484 1483 1482 1481 1480 1479 1478 1477 1475 1473 1471 1469 1467 1465 1463 1460 1457 1455 1454 1453
1450 1452 1454 1457 1459 1461 1464 1465 1467 1469 1471 1473 1474 1475 1477 1478 1479 1480 1480 1481 1481 1481 1481 1481 1480 1479 1479 1477 1476 1475 1474 1472 1471 1469 1467 1465 1462 1460 1458 1455 1452 1449 1447 1445
1450 1452 1454 1456 1458 1460 1462 1464 1466 1468 1470 1471 1473 1474 1475 1476 1477 1477 1477 1478 1478 1477 1477 1477 1476 1476 1474 1473 1472 1471 1470 1468 1466 1464 1462 1460 1457 1455 1453 1450 1447 1444 1441 1439
1448 1450 1452 1454 1457 1459 1461 1463 1465 1466 1468 1469 1470 1472 1473 1473 1474 1474 1474 1474 1474 1474 1474 1473 1472 1471 1470 1469 1468 1466 1465 1463 1461 1459 1457 1454 1452 1450 1447 1444 1441 1438 1435 1433
1447 1449 1451 1453 1455 1457 1459 1461 1463 1464 1466 1467 1468 1469 1470 1470 1471 1471 1471 1471 1470 1470 1470 1469 1468 1467 1466 1464 1463 1461 1460 1458 1456 1454 1451 1449 1446 1443 1441 1438 1435 1432 1428 1426
1445 1447 1449 1452 1454 1455 1457 1459 1460 1462 1463 1464 1465 1466 1466 1467 1467 1467 1467 1467 1466 1466 1465 1464 1463 1462 1461 1459 1458 1456 1454 1452 1450 1448 1445 1443 1440 1437 1434 1431 1428 1425 1422 1419
1444 1446 1448 1450 1452 1454 1455 1456 1458 1459 1460 1461 1461 1462 1463 1463 1463 1463 1463 1462 1462 1461 1460 1459 1458 1457 1455 1454 1452 1450 1448 1446 1444 1441 1439 1436 1433 1430 1428 1425 1422 1419 1416 1412
1443 1445 1446 1448 1450 1451 1453 1454 1455 1456 1457 1458 1458 1458 1459 1459 1459 1459 1458 1458 1457 1456 1455 1454 1452 1451 1450 1448 1446 1444 1442 1440 1437 1435 1432 1430 1427 1424 1421 1418 1414 1411 1408 1405
1443 1444 1445 1447 1448 1449 1450 1451 1452 1453 1453 1454 1454 1455 1455 1455 1455 1454 1453 1453 1452 1451 1450 1448 1447 1445 1444 1442 1440 1437 1435 1433 1431 1428 1426 1423 1420 1416 1413 1410 1407 1404 1401 1397
1442 1443 1444 1445 1446 1447 1448 1449 1449 1449 1450 1450 1450 1450 1450 1450 1449 1449 1448 1447 1447 1445 1444 1442 1441 1439 1437 1435 1433 1431 1428 1426 1424 1421 1419 1416 1413 1409 1406 1403 1399 1396 1393 1390
1441 1442 1443 1443 1444 1445 1445 1446 1446 1446 1446 1446 1446 1446 1445 1445 1444 1444 1443 1442 1441 1439 1438 1436 1435 1433 1431 1429 1426 1424 1422 1419 1417 1414 1411 1408 1405 1402 1399 1395 1392 1388 1385 1382
1439 1440 1440 1441 1442 1442 1442 1442 1442 1442 1442 1442 1441 1441 1440 1440 1439 1438 1437 1436 1435 1433 1431 1430 1428 1427 1424 1422 1420 1418 1415 1413 1410 1407 1404 1400 1397 1394 1391 1388 1385 1381 1378 1375
1437 1437 1437 1438 1438 1438 1438 1438 1438 1438 1437 1437 1436 1436 1435 1434 1433 1432 1431 1430 1428 1427 1425 1423 1422 1420 1418 1416 1413 1411 1408 1405 1402 1399 1396 1393 1390 1387 1384 1380 1377 1374 1371 1368
1433 1434 1434 1434 1434 1434 1434 1434 1434 1433 1433 1432 1431 1431 1430 1429 1428 1427 1425 1424 1422 1421 1419 1417 1416 1414 1411 1409 1406 1404 1401 1398 1395 1392 1389 1386 1383 1380 1377 1373 1370 1367 1365 1362